Location: Observatoire
(46.1952°N, 5.3391°E)
Time: 03:50:25
(UTC+01:00)

Altair - Pass Details

Date: 17 February 2026
Orbit: 1502 x 1682 km, 47.2° (Epoch: 13 March)

Event Time Altitude Azimuth Distance (km) Brightness Sun altitude
Rises 06:25:01 0° 244° (WSW) 4,633 - -13.4°
Exits shadow 06:27:52 10° 244° (WSW) 3,707 9.0 -12.9°
Reaches altitude 10° 06:28:00 10° 244° (WSW) 3,662 9.0 -12.9°
Maximum altitude 06:37:14 80° 159° (SSE) 1,563 7.6 -11.3°
Drops below altitude 10° 06:46:47 10° 75° (ENE) 3,784 10.8 -9.6°
Sets 06:49:55 0° 74° (ENE) 4,795 11.5 -9.1°
